ASXG -KGCN

Flight info

Callsign ASXG
Flight time N/A
Altitude VFR
Route
Aircraft KSAN/L-VGD/C

Departure

Time N/A
Airport -

Arrival

Time 2026-05-06 03:12
Airport Grand Canyon National Park Airport (KGCN)
Time Latitude Longitude Altitude Speed Heading
2026-05-06 03:09 35.96357 -112.08271 7640 ft 113 kts 317°
2026-05-06 03:10 35.96993 -112.08850 7653 ft 115 kts 318°
2026-05-06 03:10 35.97624 -112.09468 7653 ft 116 kts 317°
2026-05-06 03:10 35.97957 -112.10321 7640 ft 113 kts 270°
2026-05-06 03:10 35.97812 -112.11225 7725 ft 95 kts 258°
2026-05-06 03:11 35.97633 -112.11858 7623 ft 66 kts 244°
2026-05-06 03:11 35.97393 -112.12291 7404 ft 56 kts 236°
2026-05-06 03:11 35.97119 -112.12657 7139 ft 62 kts 229°
2026-05-06 03:11 35.96790 -112.13047 6948 ft 68 kts 225°
2026-05-06 03:12 35.96454 -112.13412 6738 ft 62 kts 220°
2026-05-06 03:12 35.96116 -112.13767 6630 ft 63 kts 222°
2026-05-06 03:12 35.95841 -112.14055 6593 ft 42 kts 219°
2026-05-06 03:12 35.95519 -112.14383 6598 ft 73 kts 219°
2026-05-06 03:13 35.95128 -112.14783 6747 ft 77 kts 211°
2026-05-06 03:13 35.94589 -112.14588 6868 ft 95 kts 146°
2026-05-06 03:13 35.94165 -112.13981 7079 ft 98 kts 127°
2026-05-06 03:13 35.93805 -112.13236 7168 ft 100 kts 129°
2026-05-06 03:14 35.93401 -112.12499 7296 ft 107 kts 122°
2026-05-06 03:14 35.93401 -112.11565 7410 ft 116 kts 62°
2026-05-06 03:14 35.93917 -112.10836 7549 ft 116 kts 36°
2026-05-06 03:14 35.94541 -112.10245 7730 ft 109 kts 27°
2026-05-06 03:15 35.95166 -112.09697 7796 ft 114 kts 31°
2026-05-06 03:15 35.95803 -112.09141 7924 ft 108 kts 12°
2026-05-06 03:15 35.96538 -112.09133 7874 ft 105 kts 317°
2026-05-06 03:15 35.97054 -112.09795 7849 ft 107 kts 308°
2026-05-06 03:16 35.97566 -112.10487 7805 ft 114 kts 305°
2026-05-06 03:16 35.97998 -112.11152 7732 ft 85 kts 299°
2026-05-06 03:16 35.98023 -112.11757 7633 ft 73 kts 223°
2026-05-06 03:16 35.97658 -112.12119 7388 ft 63 kts 227°
2026-05-06 03:17 35.97328 -112.12487 7180 ft 62 kts 227°
2026-05-06 03:17 35.97007 -112.12821 7007 ft 58 kts 226°
2026-05-06 03:17 35.96704 -112.13141 6856 ft 60 kts 225°
2026-05-06 03:17 35.96392 -112.13475 6711 ft 59 kts 224°
2026-05-06 03:18 35.96085 -112.13798 6647 ft 56 kts 221°
2026-05-06 03:18 35.95778 -112.14124 6641 ft 71 kts 228°
2026-05-06 03:18 35.95344 -112.14554 6666 ft 89 kts 223°
2026-05-06 03:18 35.94867 -112.15087 6772 ft 94 kts 222°
2026-05-06 03:19 35.94346 -112.15588 6889 ft 97 kts 207°
2026-05-06 03:19 35.93699 -112.15370 6981 ft 113 kts 140°
2026-05-06 03:19 35.93205 -112.14602 7110 ft 115 kts 135°
2026-05-06 03:19 35.92721 -112.13799 7228 ft 117 kts 136°
2026-05-06 03:20 35.91695 -112.12282 7463 ft 115 kts 134°
2026-05-06 03:20 35.91576 -112.11311 7541 ft 123 kts 63°
2026-05-06 03:20 35.92095 -112.10503 7640 ft 122 kts 46°
2026-05-06 03:21 35.92627 -112.09723 7630 ft 114 kts 45°
2026-05-06 03:21 35.93126 -112.09002 7642 ft 107 kts 46°
2026-05-06 03:21 35.93602 -112.08298 7648 ft 111 kts 45°
2026-05-06 03:21 35.94125 -112.07543 7657 ft 121 kts 45°
2026-05-06 03:22 35.94699 -112.06736 7650 ft 129 kts 44°
2026-05-06 03:22 35.95301 -112.05890 7652 ft 132 kts 41°
2026-05-06 03:22 35.96087 -112.05459 7641 ft 123 kts 349°
2026-05-06 03:22 35.96791 -112.05952 7644 ft 116 kts 317°
2026-05-06 03:23 35.97435 -112.06556 7639 ft 116 kts 318°
2026-05-06 03:23 35.97857 -112.06963 7639 ft 116 kts 313°
2026-05-06 03:23 35.98595 -112.07925 7680 ft 114 kts 309°
2026-05-06 03:23 35.98953 -112.08384 7738 ft 111 kts 309°
2026-05-06 03:24 35.99378 -112.09148 7774 ft 99 kts 298°
2026-05-06 03:24 35.99463 -112.09837 7739 ft 69 kts 257°
2026-05-06 03:24 35.99244 -112.10327 7654 ft 67 kts 238°
2026-05-06 03:24 35.98914 -112.10747 7622 ft 70 kts 228°
2026-05-06 03:25 35.98544 -112.11146 7574 ft 72 kts 231°
2026-05-06 03:25 35.98175 -112.11575 7468 ft 75 kts 227°
2026-05-06 03:25 35.97776 -112.12001 7339 ft 80 kts 228°
2026-05-06 03:25 35.97305 -112.12508 7167 ft 92 kts 225°
2026-05-06 03:26 35.96864 -112.12979 6968 ft 85 kts 225°
2026-05-06 03:26 35.96444 -112.13433 6769 ft 73 kts 221°
2026-05-06 03:26 35.96059 -112.13826 6627 ft 68 kts 223°
2026-05-06 03:26 35.95763 -112.14142 6589 ft 47 kts 221°
2026-05-06 03:27 35.95453 -112.14463 6615 ft 68 kts 221°
2026-05-06 03:27 35.94989 -112.14625 6740 ft 79 kts 169°
2026-05-06 03:27 35.94579 -112.14141 6934 ft 87 kts 136°
2026-05-06 03:27 35.94204 -112.13456 6986 ft 101 kts 133°
2026-05-06 03:28 35.93829 -112.12681 7099 ft 107 kts 133°
2026-05-06 03:28 35.93405 -112.11919 7219 ft 110 kts 133°
2026-05-06 03:28 35.93064 -112.11037 7329 ft 121 kts 94°
2026-05-06 03:28 35.93458 -112.10170 7445 ft 120 kts 37°
2026-05-06 03:29 35.94076 -112.09470 7569 ft 121 kts 38°
2026-05-06 03:29 35.94694 -112.08764 7644 ft 123 kts 36°
2026-05-06 03:29 35.95366 -112.08077 7653 ft 128 kts 36°
2026-05-06 03:29 35.96059 -112.07375 7652 ft 129 kts 35°
2026-05-06 03:30 35.96762 -112.06678 7650 ft 130 kts 32°
2026-05-06 03:30 35.97577 -112.06489 7644 ft 118 kts 329°
2026-05-06 03:30 35.98221 -112.07083 7651 ft 116 kts 315°
2026-05-06 03:30 35.98846 -112.07731 7651 ft 119 kts 314°
2026-05-06 03:31 35.99471 -112.08398 7655 ft 118 kts 310°
2026-05-06 03:31 35.99981 -112.09176 7682 ft 113 kts 285°
2026-05-06 03:31 35.99720 -112.10000 7632 ft 118 kts 218°
2026-05-06 03:31 35.99048 -112.10652 7536 ft 123 kts 225°
2026-05-06 03:32 35.98474 -112.11228 7535 ft 90 kts 225°
2026-05-06 03:32 35.98072 -112.11664 7441 ft 75 kts 227°
2026-05-06 03:32 35.97684 -112.12099 7320 ft 74 kts 224°
2026-05-06 03:32 35.97301 -112.12503 7117 ft 70 kts 224°
2026-05-06 03:33 35.96961 -112.12867 6893 ft 65 kts 225°
2026-05-06 03:33 35.96610 -112.13250 6778 ft 68 kts 223°
2026-05-06 03:33 35.96247 -112.13629 6658 ft 68 kts 222°
2026-05-06 03:33 35.95925 -112.13966 6595 ft 46 kts 223°
2026-05-06 03:34 35.95735 -112.14168 6588 ft 31 kts 221°
2026-05-06 03:34 35.95590 -112.14322 6582 ft 25 kts 221°
2026-05-06 03:34 35.95463 -112.14434 6577 ft 20 kts 198°
2026-05-06 03:34 35.95346 -112.14439 6574 ft 10 kts 154°
2026-05-06 03:35 35.95369 -112.14381 6576 ft 13 kts 43°
2026-05-06 03:35 35.95477 -112.14267 6580 ft 21 kts 42°
2026-05-06 03:35 35.95580 -112.14156 6585 ft 19 kts 41°
2026-05-06 03:35 35.95669 -112.14062 6588 ft 15 kts 41°
2026-05-06 03:36 35.95738 -112.13989 6593 ft 13 kts 40°
2026-05-06 03:36 35.95797 -112.13928 6595 ft 9 kts 36°
2026-05-06 03:36 35.95835 -112.13888 6595 ft 10 kts 38°
2026-05-06 03:36 35.95885 -112.13812 6596 ft 8 kts 112°
2026-05-06 03:37 35.95853 -112.13765 6597 ft 7 kts 129°
2026-05-06 03:37 35.95849 -112.13759 6597 ft 0 kts 128°